Mount Airy, NC

7:25 PM EST on December 07, 2019 (GMT -0500)
Mount Airy-Surry County

Weather History for KMWK - October, 2019

Change the Weather History Date:

Friday, October 25, 2019

  Actual Average (WUND) Record (WUND)
Temperature  
Mean Temperature 54 °F -  
Max Temperature 66 °F - - (-1)
Min Temperature 42 °F - - (-1)
Degree Days  
Heating Degree Days 11    
Growing Degree Days 4 (Base 50)    
Moisture  
Dew Point 47 °F    
Average Humidity 77    
Maximum Humidity 93    
Minimum Humidity 47    
Precipitation  
Precipitation 0.00 in - - ()
Sea Level Pressure  
Sea Level Pressure 30.29 in    
Wind  
Wind Speed 0 mph ()    
Max Wind Speed 4 mph    
Max Gust Speed -    
Visibility 10.0 miles    
Events      
Averages and records for this station are not official NWS values.
T = Trace of Precipitation, MM = Missing Value Source: Averaged Metar Reports

Daily Weather History Graph

Daily Weather History Graph

Search for Another Location

Airport or City:

Astronomy

Oct. 25, 2019 Rise Set
Actual Time 7:38 AM EDT 6:33 PM EDT
Civil Twilight 7:12 AM EDT 6:59 PM EDT
Nautical Twilight 6:41 AM EDT 7:30 PM EDT
Astronomical Twilight 6:11 AM EDT 8:00 PM EDT
Moon 4:27 AM EDT (10/25) 5:28 PM EDT (10/25)
Length of Visible Light 11h 47m
Length of Day
10h 55m
Waning Crescent, 9% of the Moon is Illuminated
Oct 25
Waning Crescent
Oct 27
New
Nov 4
First Quarter
Nov 12
Full
Nov 19
Last Quarter

Hourly Weather History & Observations

Time (EDT) Temp. Windchill Dew Point Humidity Pressure Visibility Wind Dir Wind Speed Gust Speed Precip Events Conditions
12:35 AM 45.9 °F - 43.0 °F 90% 30.33 in 10.0 mi Calm Calm - N/A   Clear
12:55 AM 45.9 °F - 43.0 °F 90% 30.33 in 10.0 mi Calm Calm - N/A   Clear
1:15 AM 45.7 °F - 43.0 °F 90% 30.33 in 10.0 mi Calm Calm - N/A   Clear
1:35 AM 45.7 °F - 43.0 °F 90% 30.32 in 10.0 mi Calm Calm - N/A   Clear
1:55 AM 45.5 °F - 42.8 °F 90% 30.33 in 10.0 mi Calm Calm - N/A   Clear
2:15 AM 45.5 °F - 42.8 °F 90% 30.32 in 10.0 mi Calm Calm - N/A   Clear
2:35 AM 44.8 °F - 42.1 °F 90% 30.32 in 10.0 mi Calm Calm - N/A   Clear
2:55 AM 44.2 °F - 41.7 °F 91% 30.32 in 10.0 mi Calm Calm - N/A   Clear
3:35 AM 44.1 °F - 41.9 °F 92% 30.31 in 10.0 mi Calm Calm - N/A   Clear
3:55 AM 43.7 °F - 41.2 °F 91% 30.31 in 10.0 mi Calm Calm - N/A   Clear
4:15 AM 43.3 °F - 41.2 °F 92% 30.31 in 10.0 mi Calm Calm - N/A   Clear
4:35 AM 43.5 °F - 41.2 °F 91% 30.31 in 10.0 mi Calm Calm - N/A   Clear
4:55 AM 43.3 °F - 41.0 °F 91% 30.31 in 10.0 mi Calm Calm - N/A   Clear
5:15 AM 43.0 °F - 41.0 °F 93% 30.32 in 10.0 mi Calm Calm - N/A   Clear
5:35 AM 43.9 °F - 41.7 °F 92% 30.32 in 10.0 mi Calm Calm - N/A   Scattered Clouds
5:55 AM 43.7 °F - 41.4 °F 91% 30.32 in 10.0 mi Calm Calm - N/A   Clear
6:15 AM 43.7 °F - 41.4 °F 91% 30.32 in 10.0 mi Calm Calm - N/A   Clear
6:35 AM 44.1 °F - 41.7 °F 91% 30.32 in 10.0 mi Calm Calm - N/A   Clear
6:55 AM 44.1 °F - 41.7 °F 91% 30.32 in 10.0 mi Calm Calm - N/A   Clear
7:15 AM 43.2 °F 41.5 °F 40.8 °F 91% 30.31 in 10.0 mi North 3.5 mph - N/A   Clear
7:35 AM 42.8 °F - 40.5 °F 91% 30.31 in 10.0 mi Calm Calm - N/A   Clear
7:55 AM 44.6 °F - 42.1 °F 91% 30.33 in 10.0 mi Calm Calm - N/A   Clear
8:15 AM 45.5 °F - 43.0 °F 91% 30.33 in 10.0 mi Calm Calm - N/A   Clear
8:35 AM 46.4 °F - 43.9 °F 91% 30.34 in 10.0 mi Calm Calm - N/A   Clear
8:55 AM 48.2 °F - 45.5 °F 90% 30.34 in 10.0 mi Calm Calm - N/A   Clear
9:15 AM 48.4 °F - 45.3 °F 89% 30.35 in 10.0 mi Calm Calm - N/A   Clear
9:35 AM 49.3 °F - 45.9 °F 88% 30.35 in 10.0 mi Calm Calm - N/A   Clear
9:55 AM 51.1 °F - 46.9 °F 86% 30.36 in 10.0 mi Calm Calm - N/A   Clear
10:15 AM 53.8 °F - 48.6 °F 82% 30.35 in 10.0 mi Calm Calm - N/A   Clear
10:35 AM 57.0 °F - 49.1 °F 75% 30.34 in 10.0 mi Calm Calm - N/A   Clear
10:55 AM 59.0 °F - 47.8 °F 66% 30.33 in 10.0 mi Calm Calm - N/A   Clear
11:15 AM 59.9 °F - 50.0 °F 70% 30.33 in 10.0 mi Calm Calm - N/A   Clear
11:35 AM 59.9 °F - 51.3 °F 73% 30.33 in 10.0 mi Calm Calm - N/A   Clear
11:55 AM 63.5 °F - 51.6 °F 65% 30.33 in 10.0 mi Calm Calm - N/A   Clear
12:15 PM 64.6 °F - 48.0 °F 55% 30.32 in 10.0 mi Calm Calm - N/A   Clear
12:35 PM 65.5 °F - 45.0 °F 47% 30.31 in 10.0 mi Calm Calm - N/A   Clear
12:55 PM 66.0 °F - 45.5 °F 48% 30.30 in 10.0 mi Calm Calm - N/A   Clear
1:15 PM 65.5 °F - 45.7 °F 49% 30.29 in 10.0 mi Calm Calm - N/A   Clear
1:35 PM 64.8 °F - 47.3 °F 53% 30.28 in 10.0 mi Calm Calm - N/A   Clear
1:55 PM 64.9 °F - 47.7 °F 54% 30.27 in 10.0 mi Calm Calm - N/A   Clear
2:15 PM 65.5 °F - 47.7 °F 53% 30.26 in 10.0 mi Calm Calm - N/A   Clear
2:35 PM 65.5 °F - 49.3 °F 56% 30.24 in 10.0 mi Calm Calm - N/A   Clear
2:55 PM 65.3 °F - 48.4 °F 54% 30.24 in 10.0 mi Calm Calm - N/A   Clear
3:15 PM 65.3 °F - 50.0 °F 58% 30.24 in 10.0 mi Calm Calm - N/A   Clear
3:35 PM 65.3 °F - 49.5 °F 57% 30.24 in 10.0 mi Calm Calm - N/A   Clear
3:55 PM 65.5 °F - 49.6 °F 57% 30.24 in 10.0 mi Calm Calm - N/A   Clear
4:15 PM 65.3 °F - 50.5 °F 59% 30.24 in 10.0 mi Calm Calm - N/A   Scattered Clouds
4:35 PM 65.5 °F - 50.5 °F 58% 30.24 in 10.0 mi Calm Calm - N/A   Clear
4:55 PM 65.8 °F - 50.0 °F 57% 30.23 in 10.0 mi Calm Calm - N/A   Clear
5:15 PM 65.7 °F - 50.2 °F 57% 30.23 in 10.0 mi Calm Calm - N/A   Clear
5:35 PM 64.8 °F - 50.9 °F 61% 30.24 in 10.0 mi Calm Calm - N/A   Clear
5:55 PM 63.9 °F - 51.6 °F 64% 30.24 in 10.0 mi Calm Calm - N/A   Clear
6:15 PM 62.6 °F - 53.8 °F 73% 30.24 in 10.0 mi Calm Calm - N/A   Mostly Cloudy
6:35 PM 61.3 °F - 55.2 °F 80% 30.24 in 10.0 mi Calm Calm - N/A   Mostly Cloudy
6:55 PM 60.8 °F - 54.1 °F 79% 30.25 in 10.0 mi Calm Calm - N/A   Scattered Clouds
7:15 PM 60.8 °F - 53.8 °F 78% 30.26 in 10.0 mi Calm Calm - N/A   Mostly Cloudy
7:55 PM 59.0 °F - 54.0 °F 83% 30.27 in 10.0 mi Calm Calm - N/A   Mostly Cloudy
8:15 PM 59.9 °F - 53.2 °F 79% 30.26 in 10.0 mi Calm Calm - N/A   Mostly Cloudy
8:35 PM 58.5 °F - 53.8 °F 84% 30.26 in 10.0 mi Calm Calm - N/A   Mostly Cloudy
8:55 PM 58.5 °F - 53.2 °F 83% 30.27 in 10.0 mi Calm Calm - N/A   Mostly Cloudy
9:15 PM 59.0 °F - 53.2 °F 81% 30.27 in 10.0 mi Calm Calm - N/A   Overcast
9:55 PM 58.8 °F - 53.1 °F 81% 30.26 in 10.0 mi Calm Calm - N/A   Scattered Clouds
10:15 PM 59.7 °F - 52.3 °F 77% 30.25 in 10.0 mi Calm Calm - N/A   Clear
10:35 PM 60.1 °F - 52.2 °F 75% 30.25 in 10.0 mi Calm Calm - N/A   Scattered Clouds
10:55 PM 59.0 °F - 53.1 °F 81% 30.26 in 10.0 mi Calm Calm - N/A   Scattered Clouds
11:15 PM 58.3 °F - 53.6 °F 84% 30.25 in 10.0 mi Calm Calm - N/A   Scattered Clouds
11:35 PM 57.7 °F - 53.8 °F 87% 30.25 in 10.0 mi Calm Calm - N/A   Mostly Cloudy
11:55 PM 57.6 °F - 53.6 °F 87% 30.25 in 10.0 mi Calm Calm - N/A   Overcast